Location: Christchurch
(43.5330°S, 172.6330°E)
Time: 13:54:18
(UTC+12:00)

Cosmos 2227 - Pass Details

Date: 24 January 2019
Orbit: 833 x 863 km, 71.0° (Epoch: 22 April)

Event Time Altitude Azimuth Distance (km) Brightness Sun altitude
Rises 21:33:17 0° 205° (SSW) 3,448 8.5 -5.4°
Reaches altitude 10° 21:35:46 10° 204° (SSW) 2,501 7.7 -5.8°
Maximum altitude 21:41:32 84° 115° (ESE) 861 4.3 -6.6°
Drops below altitude 10° 21:47:11 10° 26° (NNE) 2,454 6.1 -7.5°
Enters shadow 21:48:17 - 25° (NNE) 2,872 6.4 -7.6°
